Temperature
26 26 25 25 23 22 24 25 25 24 24 24 24 23 22 21 20 19 19 19 20 20 19 19 19 19 19 19 19 19 19 19 18 18 18 18 18 18 18 18 18 18 18 18 18 18 18 18 18
26 26 25 25 23 22 24 25 25 25 24 24 23 23 22 20 19 19 19 19 20 20 20 19 19 19 19 19 19 19 19 19 18 18 18 18 18 18 18 18 18 18 18 18 18 18 18 18 18
27 26 25 23 23 23 24 25 25 25 25 24 24 23 22 21 19 19 20 20 20 20 20 19 19 19 19 19 19 19 19 19 18 18 18 18 18 18 18 18 18 18 18 18 18 18 18 18 17
27 26 25 23 24 26 26 26 26 26 25 24 23 22 22 21 21 20 20 20 20 20 20 20 19 19 19 19 19 19 19 19 19 19 18 18 18 18 18 18 18 18 18 18 18 18 18 18 17
27 26 23 24 25 27 27 27 26 25 25 23 23 22 21 21 21 21 20 21 21 20 20 20 20 19 19 19 19 19 19 19 19 19 18 18 18 18 18 18 18 18 18 18 18 18 18 17 17
27 25 23 24 26 27 27 27 26 25 24 23 22 22 21 21 21 21 21 21 21 21 20 20 20 19 19 19 19 19 19 19 19 19 18 18 18 18 18 18 18 18 18 18 18 18 18 18 17
27 24 24 25 26 26 27 27 26 25 24 23 23 22 21 21 21 21 21 21 20 20 20 20 20 19 19 19 19 19 19 19 19 18 18 18 18 18 18 18 18 18 18 18 18 18 18 18 17
29 24 26 26 26 27 28 27 26 25 25 24 23 22 21 21 21 21 21 20 20 20 20 20 20 20 19 19 19 19 19 19 19 18 18 18 18 18 18 18 18 18 18 18 18 18 18 18 18
30 25 25 26 26 27 28 27 26 26 25 24 24 23 22 22 21 21 20 20 20 20 20 20 20 19 19 19 19 19 19 18 18 18 18 18 18 18 18 18 18 18 18 18 18 18 18 18 18
29 25 27 28 27 27 28 27 26 25 24 24 23 23 22 22 21 21 20 20 20 20 20 20 20 19 19 19 19 19 19 18 18 18 18 18 18 18 18 18 18 18 18 18 18 18 18 18 18
28 27 29 29 29 29 28 27 26 25 23 23 23 23 23 22 22 21 21 21 21 20 20 20 20 19 19 19 19 19 19 18 18 18 18 18 18 18 18 18 18 18 18 18 18 18 18 18 18
29 29 30 29 30 29 28 27 26 25 24 24 24 23 23 23 22 22 21 21 21 20 20 20 20 19 19 19 19 19 19 19 18 18 18 18 18 18 18 18 18 18 18 18 18 18 18 18 18
29 29 30 30 29 29 28 27 26 25 25 24 24 24 23 23 22 22 22 21 21 20 20 20 20 19 19 19 19 19 19 19 18 18 18 18 18 18 18 18 18 18 18 18 18 18 18 18 18
29 29 29 29 29 28 27 26 25 25 24 24 24 24 24 23 23 22 22 21 21 21 20 20 20 20 19 19 19 19 19 19 18 18 18 18 18 18 18 18 18 18 18 18 18 18 18 18 18
30 28 27 28 28 28 27 25 24 25 25 24 24 24 24 23 23 23 22 22 21 21 21 20 20 20 19 19 19 19 19 19 19 18 18 18 18 18 18 18 18 18 18 18 18 18 18 18 18
27 26 26 27 27 27 26 24 25 25 25 24 24 24 24 23 23 23 22 22 22 21 21 20 20 20 20 19 19 19 19 19 19 19 18 18 18 18 18 18 18 18 18 18 18 18 18 18 18
25 25 26 27 27 27 25 24 25 25 25 24 24 24 24 23 23 23 23 22 22 21 21 20 20 20 20 19 19 19 19 19 19 19 18 18 18 18 18 18 18 18 18 18 18 18 18 18 18
25 26 26 26 27 27 25 24 25 25 25 24 24 24 24 23 23 23 23 22 22 21 21 21 20 20 20 20 19 19 19 19 19 19 19 18 18 18 18 18 18 18 18 18 18 18 18 18 18
27 27 26 27 28 26 25 25 25 25 25 25 24 24 24 24 23 23 23 22 22 21 21 21 21 20 20 20 19 19 19 19 19 19 19 18 18 18 18 18 18 18 18 18 18 18 18 18 18
28 27 27 27 28 26 25 25 25 25 25 25 24 24 24 24 23 23 23 22 22 22 21 21 21 20 20 20 19 19 19 19 19 19 19 19 18 18 18 18 18 18 18 18 18 18 18 18 18
28 27 27 27 27 27 26 25 25 25 26 25 25 24 24 24 23 23 23 22 22 22 22 21 21 20 20 20 19 19 19 19 19 19 19 19 18 18 18 18 18 18 18 18 18 18 18 18 18
27 28 28 28 26 24 25 23 24 24 24 25 25 24 24 24 24 23 23 23 22 22 22 21 21 21 20 20 20 19 19 19 19 19 19 18 18 18 18 18 18 18 18 18 18 18 18 18 18
28 29 28 28 25 24 24 23 23 23 24 24 24 24 24 24 24 24 23 23 23 22 22 21 21 21 20 20 20 19 19 19 19 19 18 18 18 18 18 18 18 18 18 18 18 18 18 18 17
29 28 25 23 22 23 24 24 23 23 24 24 24 25 24 24 24 24 23 23 22 22 21 21 21 20 20 20 20 19 19 19 19 19 18 18 18 18 18 18 18 18 18 18 18 18 17 17 17
28 23 23 23 22 23 23 24 23 24 25 25 25 25 24 24 24 24 23 23 22 22 21 21 21 20 20 20 20 19 19 19 19 18 18 18 18 18 18 18 18 18 17 17 17 17 17 17 17
26 23 22 23 23 22 23 24 24 25 26 26 26 25 25 24 24 23 23 23 22 22 22 21 21 21 20 20 20 19 19 19 18 18 18 18 18 18 17 17 17 17 17 17 17 17 17 17 17
27 24 22 21 22 23 23 24 25 25 25 25 25 25 25 24 24 23 23 23 22 22 22 21 21 21 20 20 20 19 19 19 19 18 18 18 18 17 17 17 17 17 17 17 17 17 17 16 16
27 25 21 21 22 23 23 23 23 24 24 24 24 24 24 24 24 23 23 23 22 22 22 21 21 21 20 20 20 19 19 19 18 18 18 18 17 17 17 17 17 17 17 17 17 16 16 16 16
27 26 22 19 20 21 23 23 24 23 23 23 23 24 24 24 23 23 23 23 22 22 22 21 21 20 20 20 20 19 19 19 18 18 18 18 17 17 17 17 17 17 16 16 16 16 16 16 16
26 25 22 22 22 20 21 22 25 24 24 24 24 24 24 24 23 23 23 23 22 22 21 21 21 20 20 20 19 19 19 18 18 18 18 17 17 17 17 17 17 17 16 16 16 16 16 16 15
Wind_Speed
5 5 2 1 5 6 9 9 11 11 7 9 11 11 11 8 7 9 4 11 11 8 10 13 14 15 15 15 16 16 17 17 17 18 18 18 18 19 18 18 19 19 19 19 19 18 18 18 18
4 4 1 4 6 7 8 11 15 14 14 15 14 15 12 10 10 11 7 11 11 10 11 13 14 15 15 15 15 15 16 16 16 17 17 18 18 18 17 18 18 18 17 17 17 17 16 16 16
3 2 3 4 5 8 9 12 16 15 13 12 8 8 6 8 11 8 10 14 11 10 12 14 15 15 15 15 15 15 15 16 16 16 16 17 17 17 17 17 17 16 16 16 15 15 15 14 14
2 3 4 6 7 8 11 14 16 15 12 11 11 8 5 8 8 12 17 15 13 9 12 14 15 15 15 15 15 15 15 15 15 15 16 16 16 16 16 16 16 15 15 14 14 13 13 12 12
3 4 6 6 7 9 12 15 15 13 7 11 12 10 7 7 18 20 17 16 14 8 11 14 15 15 15 14 14 14 14 14 15 15 15 15 15 15 15 15 15 14 13 12 12 12 11 10 10
3 4 5 6 9 9 10 14 16 17 17 15 13 10 6 12 18 17 16 14 13 11 11 13 15 14 14 14 14 14 13 14 14 14 14 14 14 14 13 13 13 13 12 11 10 10 9 9 8
5 4 4 7 9 9 10 12 14 15 15 10 11 8 6 11 15 16 15 13 11 11 10 10 12 13 13 13 13 13 13 13 13 13 13 13 12 12 12 12 12 11 11 9 9 8 7 7 6
5 5 5 5 9 8 9 9 13 16 11 14 9 8 8 11 15 15 13 12 11 9 8 9 10 11 11 12 13 13 12 12 12 11 11 11 11 10 10 10 10 10 9 8 7 6 5 5 4
5 6 5 6 9 8 11 14 10 11 13 8 6 9 13 17 18 15 12 9 8 9 7 7 8 9 10 10 11 11 11 10 10 9 9 8 7 7 7 8 8 8 8 7 6 4 3 2 2
6 6 7 7 9 10 13 15 10 9 13 11 13 12 14 16 17 16 14 11 10 10 9 7 7 8 9 9 10 9 8 9 8 8 7 7 6 6 6 7 6 6 6 5 5 4 2 2 1
5 7 7 8 10 12 12 10 8 12 11 15 18 16 15 15 14 14 13 12 11 10 9 8 8 9 8 6 8 7 6 7 7 8 7 7 6 5 5 4 4 4 4 4 4 4 3 3 4
5 5 7 8 10 11 10 9 9 10 11 15 16 16 13 14 12 13 12 10 9 9 9 8 8 7 8 8 7 7 6 5 5 7 8 8 5 4 4 4 5 5 4 5 5 4 5 5 6
6 5 6 8 10 13 12 11 11 10 15 14 14 13 13 13 11 10 11 10 10 9 8 8 8 7 7 6 5 6 6 6 7 7 9 10 6 3 4 4 4 5 6 5 4 4 4 3 3
2 5 7 8 9 10 15 11 10 12 15 13 13 11 12 13 12 11 10 10 10 9 8 7 7 6 7 5 3 4 6 8 8 7 8 10 8 6 4 3 3 4 5 6 5 4 2 2 1
3 6 6 4 6 6 12 9 10 14 15 13 11 11 12 11 12 13 13 12 11 10 9 8 7 6 6 5 4 4 6 7 6 6 7 8 8 7 5 3 2 3 4 4 3 2 2 1 1
5 6 3 2 3 4 9 8 10 14 15 13 12 12 12 10 11 11 12 11 10 10 9 8 7 6 5 4 3 3 5 5 5 6 6 6 7 7 5 2 2 3 2 2 2 2 2 1 1
5 2 2 2 3 4 6 7 10 12 15 14 13 12 12 11 10 10 12 12 11 10 9 7 6 6 5 4 3 3 4 4 5 5 5 6 6 6 5 3 3 3 1 1 1 2 2 2 1
3 2 2 4 5 6 6 7 11 13 14 15 13 11 12 13 11 12 11 11 10 9 8 7 6 6 5 3 2 2 2 1 2 3 5 5 5 5 4 2 2 2 1 0 0 1 1 2 2
5 3 2 3 5 6 7 8 11 12 12 13 11 12 12 12 10 11 11 12 10 9 8 7 7 5 4 3 2 2 1 1 1 2 4 5 5 4 4 2 1 1 1 1 1 1 1 1 2
2 3 3 2 4 6 7 6 9 12 14 15 15 14 14 11 9 9 9 10 10 10 9 8 7 6 5 4 3 3 2 2 2 1 2 4 4 4 3 3 2 1 1 1 0 1 1 1 2
3 3 3 2 1 2 6 0 4 7 7 9 12 14 14 15 14 12 11 9 9 9 9 9 8 7 6 5 3 2 2 1 1 0 1 1 3 3 3 3 2 1 2 1 2 2 3 2 2
5 4 3 3 4 1 4 3 6 7 6 9 10 12 13 13 13 13 12 11 11 9 8 8 8 7 6 6 4 4 3 3 3 2 1 0 1 2 2 2 2 1 1 1 1 1 2 2 2
7 4 3 3 4 1 1 5 5 4 7 10 12 14 15 15 15 15 14 13 11 10 8 7 7 7 6 6 6 5 3 2 1 2 2 1 1 1 2 2 2 1 1 0 1 0 0 1 2
3 4 7 6 5 1 3 5 4 7 12 13 13 15 15 15 15 13 12 10 8 8 7 6 7 6 6 6 6 6 5 4 3 2 2 1 1 1 2 2 2 1 1 1 1 1 1 0 1
4 7 5 5 4 4 3 3 7 9 11 14 15 15 15 15 14 13 12 11 10 9 8 7 7 6 6 6 5 5 5 4 4 3 3 2 1 1 1 1 1 1 1 1 1 2 1 1 1
4 10 8 5 4 4 2 3 7 6 7 10 12 13 13 14 13 13 13 12 11 11 9 8 7 6 6 5 4 4 4 3 3 3 3 3 1 1 1 2 2 2 2 2 2 2 1 1 1
5 5 10 8 3 1 3 3 5 2 5 7 9 11 12 13 13 13 12 11 10 10 10 10 8 6 6 6 5 4 4 4 4 3 3 2 1 1 2 3 3 3 3 3 3 2 2 2 2
8 8 7 6 4 1 3 3 5 4 5 6 8 10 11 11 11 11 11 10 9 9 8 8 8 7 6 6 5 5 4 4 4 4 4 3 2 2 3 3 4 4 4 4 3 3 3 3 3
4 4 6 6 6 6 2 6 7 10 9 10 11 11 13 13 13 12 11 10 10 9 9 8 7 6 6 5 5 5 4 4 5 4 4 3 3 3 4 4 4 4 4 3 3 3 3 3 3
8 8 8 6 3 5 5 7 6 9 9 10 11 11 12 13 13 12 11 10 10 9 9 8 7 7 6 6 6 5 5 5 5 4 3 3 3 3 4 4 5 4 4 4 4 4 4 4 4
Wind_Direction
190 183 165 95 54 62 85 91 95 86 73 72 81 86 83 69 98 124 143 135 134 130 120 112 108 105 101 97 95 94 93 92 93 95 95 96 96 97 98 100 100 100 100 102 103 104 105 106 107
181 170 103 55 82 86 85 98 94 97 114 103 85 83 78 74 91 117 130 139 135 128 122 117 112 108 105 102 99 97 96 95 95 96 97 98 99 99 100 102 102 102 103 103 104 105 106 108 110
183 169 89 68 101 118 112 108 109 105 107 99 93 72 71 104 117 134 146 142 131 123 122 122 117 113 110 106 103 102 101 100 99 99 100 100 101 102 103 104 104 105 106 106 106 107 108 108 108
131 63 51 74 102 121 123 123 117 107 86 82 91 76 75 115 123 136 140 136 127 122 125 125 120 117 114 111 108 107 105 105 104 104 103 105 105 106 108 108 109 109 109 108 108 109 109 109 107
89 69 59 74 93 101 115 120 117 107 91 93 95 102 94 99 123 133 138 135 131 129 130 129 125 122 118 115 113 111 110 109 109 108 107 108 110 111 111 111 113 114 114 113 111 110 108 106 105
70 71 80 101 105 101 110 114 107 102 111 109 108 107 107 126 132 138 138 136 137 137 135 133 130 127 124 121 119 116 115 114 113 113 111 112 113 113 114 115 117 118 118 117 115 114 110 104 100
119 104 121 123 113 115 125 122 117 122 124 125 125 108 121 136 142 140 136 134 136 138 137 135 136 133 130 128 127 126 124 121 120 119 118 118 118 118 118 119 120 122 123 122 120 118 113 104 98
142 114 102 115 119 124 130 117 127 130 122 132 129 124 148 150 139 133 132 133 137 142 144 143 141 140 138 136 135 136 133 130 128 127 126 126 125 126 127 128 130 130 131 130 129 126 121 112 103
110 92 122 144 131 131 121 107 111 111 120 131 107 128 144 137 133 129 130 135 145 150 154 153 151 152 150 148 146 144 141 140 138 139 139 134 132 136 141 144 144 143 143 145 145 142 138 135 122
106 120 162 159 140 135 127 121 120 107 110 106 112 125 134 134 137 140 148 155 162 165 169 167 164 165 164 158 152 156 152 152 155 158 158 155 154 164 162 162 160 161 163 168 177 182 194 237 267
117 133 131 126 133 131 128 123 111 118 130 142 142 145 143 140 142 149 156 159 163 165 165 169 170 172 174 160 162 173 171 172 180 182 180 173 172 181 180 176 182 184 188 203 214 224 242 244 251
98 110 123 125 122 120 125 120 113 128 150 151 146 146 142 144 146 151 155 156 152 151 153 160 163 164 168 162 169 177 181 178 184 188 180 170 168 180 184 191 203 207 213 221 232 235 246 252 247
78 95 96 112 112 116 111 110 115 128 137 142 143 140 142 146 146 149 148 145 142 145 150 155 152 150 150 150 167 171 181 178 180 176 174 168 165 172 186 201 210 213 214 213 221 224 230 234 225
78 80 89 97 95 104 109 107 106 138 141 144 146 144 144 146 147 144 144 143 143 146 150 149 144 142 137 138 151 161 172 176 175 172 173 172 170 173 178 188 198 214 218 210 209 211 203 205 188
75 76 58 78 96 117 104 96 133 152 147 146 153 151 147 148 149 154 156 153 151 150 148 148 147 140 138 141 145 150 167 167 169 176 173 170 170 170 167 169 194 216 217 212 207 206 174 163 144
34 73 80 280 118 140 106 138 166 159 152 155 162 160 154 156 158 157 154 150 150 149 149 157 152 145 146 142 137 133 151 158 168 171 168 169 176 172 162 171 217 229 205 188 176 167 145 151 146
25 78 198 250 202 146 111 155 178 170 159 161 164 165 161 159 161 160 155 151 152 154 153 156 148 153 153 147 138 131 136 143 160 164 174 179 178 181 171 180 216 215 175 178 182 153 155 163 181
238 212 231 212 209 141 135 166 177 178 169 165 166 166 164 166 171 167 160 156 154 155 153 153 153 157 149 135 115 92 91 115 149 164 178 179 178 184 176 180 202 178 152 189 149 150 153 167 178
208 206 226 228 174 141 160 174 184 180 175 169 169 171 171 174 172 164 161 159 154 153 154 155 153 161 146 134 132 132 160 188 203 198 188 183 181 176 165 164 175 168 170 212 202 153 137 167 149
224 183 223 245 165 151 166 187 192 180 183 179 177 176 176 170 163 166 162 162 163 165 165 163 162 164 163 163 166 168 165 187 197 209 181 183 182 181 168 165 183 180 184 242 220 163 163 216 168
275 199 195 193 103 112 121 117 204 202 187 185 182 179 174 171 171 173 167 167 168 174 175 173 168 165 168 166 147 122 93 54 49 78 181 195 183 183 178 165 172 182 170 206 232 204 183 213 239
250 231 172 162 126 212 135 183 243 205 191 190 186 177 175 177 176 177 173 173 177 182 179 171 168 167 170 165 158 161 168 179 205 188 178 169 159 160 159 138 138 139 150 202 252 216 190 180 221
220 210 166 157 137 79 70 133 261 196 195 200 192 180 180 180 180 182 182 181 180 177 175 174 169 169 169 167 169 170 174 184 173 135 129 97 35 73 108 116 108 96 94 316 308 350 177 191 195
202 54 32 51 76 46 236 144 243 208 203 200 197 185 182 181 182 183 181 172 171 170 170 170 172 176 172 170 172 172 173 165 146 139 141 131 50 32 58 88 86 79 58 19 2 18 24 269 194
101 86 31 4 16 254 251 147 239 227 205 191 187 185 182 179 179 177 171 167 169 170 173 173 174 176 173 173 177 175 168 160 158 158 156 143 107 61 43 76 67 67 55 46 43 42 23 28 47
169 133 152 185 213 275 332 205 252 239 192 178 173 174 175 176 177 175 172 170 170 173 172 171 171 171 172 169 170 160 158 148 146 142 139 141 146 149 98 88 72 59 54 43 42 45 29 36 32
147 161 164 141 162 110 294 296 319 20 114 145 152 156 168 175 175 173 171 169 169 168 169 170 168 166 164 161 152 145 144 137 134 127 122 125 122 105 83 90 78 56 50 44 41 38 18 27 24
156 153 100 111 139 216 293 261 224 215 173 155 155 158 166 165 163 167 166 166 163 161 157 159 159 161 155 152 152 145 138 137 132 119 111 100 86 81 86 77 74 69 59 49 45 34 21 32 11
155 126 115 124 147 149 225 272 224 201 189 166 169 165 160 161 163 165 161 156 152 149 150 149 148 147 146 149 142 132 127 121 113 110 111 105 93 85 83 80 74 68 58 48 52 44 35 35 19
167 168 144 145 203 158 163 261 254 193 186 170 164 160 158 158 161 161 153 145 144 146 147 148 150 145 148 147 136 130 124 116 110 108 108 106 96 83 89 81 73 69 58 51 55 47 39 45 38
Height
1506 1505 1505 1507 1510 1521 1525 1520 1515 1515 1517 1518 1517 1519 1522 1527 1532 1542 1541 1540 1541 1540 1540 1540 1540 1539 1539 1538 1538 1538 1538 1538 1538 1538 1538 1538 1539 1539 1540 1540 1541 1542 1542 1543 1544 1544 1545 1546 1547
1506 1506 1507 1508 1519 1535 1531 1519 1518 1517 1519 1519 1521 1523 1525 1531 1533 1537 1539 1541 1542 1542 1542 1542 1542 1542 1541 1541 1540 1540 1540 1540 1540 1541 1541 1541 1542 1542 1543 1543 1544 1545 1545 1546 1547 1548 1548 1549 1550
1507 1507 1509 1512 1523 1531 1529 1519 1518 1520 1520 1519 1523 1526 1529 1534 1537 1538 1540 1542 1543 1543 1544 1544 1544 1543 1543 1543 1543 1543 1543 1543 1543 1543 1544 1544 1544 1545 1545 1546 1547 1547 1548 1549 1550 1551 1551 1552 1554
1507 1509 1510 1518 1524 1518 1517 1517 1517 1520 1523 1523 1525 1530 1534 1537 1537 1539 1541 1543 1544 1545 1545 1545 1545 1545 1545 1545 1545 1545 1545 1546 1546 1546 1547 1547 1547 1548 1548 1549 1550 1550 1551 1552 1553 1553 1554 1555 1556
1508 1510 1517 1525 1522 1516 1514 1516 1517 1520 1524 1527 1527 1533 1537 1539 1539 1541 1543 1545 1545 1546 1547 1547 1547 1547 1547 1547 1548 1548 1548 1548 1548 1549 1549 1550 1550 1551 1551 1551 1552 1553 1554 1554 1555 1556 1557 1558 1559
1509 1512 1527 1532 1523 1517 1517 1517 1518 1523 1527 1530 1531 1535 1540 1541 1542 1544 1546 1547 1547 1548 1548 1549 1549 1549 1549 1549 1550 1550 1550 1551 1551 1551 1552 1552 1553 1553 1554 1554 1555 1555 1556 1557 1558 1559 1560 1561 1562
1509 1516 1525 1525 1524 1522 1519 1518 1519 1524 1528 1531 1533 1536 1541 1543 1544 1546 1547 1548 1549 1550 1550 1551 1551 1551 1551 1552 1552 1552 1552 1553 1553 1554 1554 1555 1555 1556 1556 1557 1557 1558 1558 1559 1560 1561 1562 1563 1564
1506 1513 1522 1523 1524 1523 1518 1519 1522 1524 1529 1533 1534 1536 1541 1544 1546 1547 1549 1550 1551 1552 1552 1553 1553 1553 1553 1554 1554 1554 1554 1555 1555 1556 1556 1557 1557 1558 1559 1559 1560 1560 1561 1562 1562 1563 1564 1565 1566
1506 1517 1526 1522 1522 1521 1518 1520 1525 1526 1529 1533 1534 1536 1540 1544 1546 1548 1550 1551 1552 1553 1554 1554 1555 1555 1555 1555 1556 1556 1556 1557 1557 1558 1558 1559 1559 1560 1561 1562 1562 1563 1563 1564 1565 1565 1566 1567 1568
1505 1519 1518 1511 1512 1515 1518 1520 1524 1528 1531 1534 1537 1540 1542 1544 1546 1548 1550 1551 1552 1553 1555 1556 1556 1556 1557 1557 1557 1558 1558 1558 1559 1559 1560 1561 1561 1562 1562 1563 1564 1565 1565 1566 1566 1567 1568 1569 1569
1503 1510 1508 1508 1509 1512 1517 1521 1524 1528 1533 1534 1535 1539 1543 1545 1547 1548 1550 1551 1553 1554 1555 1556 1557 1558 1558 1558 1559 1559 1559 1559 1560 1560 1561 1562 1562 1563 1563 1564 1565 1566 1567 1567 1568 1568 1569 1569 1570
1504 1505 1506 1509 1510 1513 1517 1521 1525 1527 1532 1534 1536 1539 1542 1545 1547 1549 1550 1552 1553 1554 1556 1557 1558 1558 1559 1559 1560 1560 1560 1560 1561 1561 1562 1562 1563 1564 1565 1566 1566 1567 1567 1568 1568 1569 1569 1570 1570
1506 1508 1509 1511 1511 1514 1517 1521 1525 1530 1533 1536 1539 1541 1544 1546 1548 1550 1551 1552 1554 1555 1556 1557 1558 1559 1559 1560 1560 1561 1561 1561 1562 1562 1562 1563 1564 1565 1566 1566 1567 1568 1568 1568 1569 1569 1569 1569 1570
1509 1509 1512 1514 1514 1517 1520 1525 1527 1534 1535 1538 1540 1542 1544 1546 1548 1550 1551 1553 1554 1555 1557 1558 1559 1560 1560 1561 1561 1561 1562 1562 1562 1563 1563 1564 1565 1565 1566 1567 1567 1567 1568 1568 1569 1569 1569 1569 1569
1509 1513 1516 1516 1516 1520 1522 1531 1531 1533 1536 1539 1542 1543 1545 1546 1548 1549 1551 1553 1554 1556 1557 1558 1559 1560 1561 1561 1562 1562 1562 1563 1563 1564 1564 1565 1565 1566 1566 1567 1567 1567 1567 1568 1568 1568 1569 1569 1568
1511 1519 1528 1521 1518 1521 1526 1542 1533 1533 1534 1538 1541 1543 1545 1547 1548 1550 1551 1553 1554 1556 1557 1558 1559 1560 1561 1562 1562 1562 1563 1563 1564 1564 1564 1565 1565 1566 1566 1567 1567 1567 1567 1567 1567 1567 1567 1567 1567
1523 1532 1532 1525 1518 1520 1526 1537 1533 1534 1534 1536 1539 1542 1544 1546 1548 1549 1551 1552 1554 1555 1557 1558 1559 1560 1561 1562 1562 1563 1563 1564 1564 1564 1564 1565 1565 1565 1566 1566 1566 1566 1566 1566 1566 1566 1566 1566 1566
1533 1531 1529 1528 1519 1520 1527 1530 1530 1532 1533 1535 1538 1540 1542 1544 1546 1548 1549 1551 1553 1555 1556 1557 1558 1559 1560 1561 1562 1563 1563 1564 1564 1564 1564 1564 1565 1565 1565 1565 1565 1565 1565 1564 1565 1565 1565 1564 1564
1519 1524 1527 1522 1514 1521 1526 1528 1528 1530 1533 1535 1536 1538 1540 1542 1545 1547 1548 1550 1552 1553 1555 1556 1557 1558 1559 1560 1561 1562 1562 1563 1563 1563 1564 1564 1564 1564 1564 1564 1564 1564 1563 1563 1563 1563 1563 1563 1563
1516 1523 1524 1519 1514 1520 1527 1529 1526 1527 1528 1529 1532 1534 1537 1540 1543 1546 1547 1548 1550 1551 1553 1555 1556 1557 1558 1560 1560 1561 1562 1562 1563 1563 1563 1563 1563 1563 1563 1563 1562 1562 1562 1561 1561 1561 1561 1561 1561
1516 1520 1521 1521 1518 1519 1527 1535 1530 1527 1528 1529 1531 1532 1534 1537 1540 1543 1545 1547 1549 1550 1551 1553 1554 1556 1557 1558 1559 1560 1561 1561 1561 1561 1562 1562 1562 1562 1562 1561 1561 1561 1560 1560 1559 1559 1559 1559 1559
1521 1509 1512 1516 1527 1538 1532 1553 1536 1529 1529 1528 1529 1531 1532 1536 1538 1540 1542 1544 1546 1548 1550 1552 1553 1554 1556 1557 1558 1559 1559 1559 1560 1560 1561 1561 1561 1560 1560 1560 1559 1559 1558 1558 1557 1557 1556 1556 1556
1509 1503 1508 1513 1525 1536 1535 1548 1543 1531 1531 1527 1525 1527 1529 1532 1534 1537 1539 1541 1544 1547 1549 1550 1552 1553 1554 1555 1556 1557 1558 1558 1559 1559 1559 1559 1559 1559 1558 1558 1557 1557 1556 1555 1555 1554 1553 1553 1553
1499 1506 1514 1524 1535 1550 1538 1545 1546 1532 1524 1521 1521 1523 1525 1529 1532 1535 1538 1540 1543 1545 1548 1549 1551 1552 1553 1554 1555 1556 1556 1557 1557 1557 1558 1557 1557 1557 1556 1556 1555 1555 1554 1553 1552 1552 1551 1551 1550
1503 1527 1549 1551 1561 1556 1537 1540 1540 1517 1512 1513 1516 1519 1522 1525 1529 1533 1536 1538 1541 1544 1546 1548 1549 1551 1552 1553 1554 1555 1555 1556 1556 1556 1556 1556 1555 1555 1554 1554 1553 1552 1552 1551 1551 1550 1549 1548 1548
1507 1523 1551 1562 1564 1555 1538 1541 1526 1507 1507 1509 1512 1515 1520 1524 1527 1530 1533 1536 1539 1542 1545 1546 1548 1550 1551 1552 1553 1553 1554 1554 1555 1554 1554 1554 1553 1553 1552 1552 1551 1551 1550 1549 1549 1548 1547 1546 1546
1507 1519 1522 1543 1548 1555 1547 1533 1517 1507 1508 1510 1513 1515 1518 1521 1525 1528 1531 1535 1538 1541 1543 1545 1547 1549 1550 1551 1552 1552 1553 1553 1553 1553 1553 1553 1552 1551 1550 1550 1550 1549 1549 1548 1547 1546 1546 1545 1544
1497 1506 1527 1542 1557 1562 1551 1542 1534 1518 1513 1512 1513 1515 1517 1520 1524 1527 1530 1533 1537 1540 1543 1545 1547 1548 1549 1550 1551 1552 1552 1552 1552 1552 1552 1551 1551 1550 1549 1549 1549 1548 1548 1547 1547 1545 1545 1544 1543
1501 1508 1521 1538 1544 1558 1560 1547 1513 1512 1509 1510 1511 1513 1515 1519 1523 1526 1529 1533 1536 1540 1542 1544 1546 1548 1549 1550 1550 1551 1551 1552 1552 1551 1551 1551 1550 1549 1549 1548 1548 1548 1547 1547 1546 1545 1544 1543 1542
1493 1502 1517 1536 1541 1546 1552 1542 1502 1504 1504 1506 1509 1512 1515 1518 1522 1525 1529 1532 1536 1539 1541 1544 1546 1547 1548 1549 1550 1550 1551 1551 1551 1551 1551 1550 1550 1549 1548 1548 1547 1547 1546 1546 1545 1544 1543 1543 1542